sat.trackr.live / text

‹ back to catalog

2025-313AA

NORAD 67272 · 2025-313AA

PAYLOAD ACTIVE UNKNOWN

§ Identity

Operator
Country
TBD
Launch date
2025-12-28
Launch site
VOSTO
Launch vehicle
Mass (kg)
RCS (m²)

External: N2YO · Heavens-Above · Gunter

§ Orbital elements

Epoch: 2026-05-25T03:37:27.772032Z

Period
94.51 min
Inclination
97.3942°
Eccentricity
0.0015650
Mean motion
15.23590729 rev/d
Perigee alt
484.3 km
Apogee alt
505.8 km
Semi-major
6,873.2 km
B*
4.7103e-4
RAAN
220.2748°
Arg perigee
87.4334°
Mean anomaly
272.8694°
Rev number
2,245

§ Raw data

2025-313AA1 67272U 25313AA  26145.15101588  .00011246  00000+0  47103-3 0  99962 67272  97.3942 220.2748 0015650  87.4334 272.8694 15.23590729 22455

JSON: /api/v1/satellites/67272 · /tle

For live sub-satellite position, see the globe view (requires WebGL).

§ Visibility from observer

Set your observer location to see the next 7 days of passes ≥ 10°. The values pass through the URL so the page stays shareable.

No JS? Fill the form by hand. The geolocation button needs JavaScript.